Regional Weather Roundup
Issued by NWS

Home | Current Version | Previous Version | Text Only | Print | Product List | Glossary Off
Versions: 1 2 3 4 5 6 7 8 9 10 11 12 13 14 15 16 17 18 19 20 21 22 23 24 25 26 27 28 29 30 31 32 33 34 35 36 37 38 39 40 41 42 43 44 45 46 47 48 49 50

769
ASUS44 KJAN 240510
RWRMS

MISSISSIPPI HOURLY WEATHER ROUNDUP
NATIONAL WEATHER SERVICE JACKSON MS
1200 AM CDT FRI OCT 24 2014

NOTE: "FAIR: INDICATES FEW OR NO CLOUDS BELOW 12,000 FEET WITH NO
SIGNIFICANT WEATHER AND/OR OBSTRUCTIONS TO VISIBILITY.

MSZ001>002-007>008-010>013-018>021-025>028-034>036-240600-
NORTHWEST MISSISSIPPI

CITY           SKY/WX    TMP DP  RH WIND       PRES   REMARKS
CLARKSDALE     FAIR      48  48 100 N6        30.14F
CLEVELAND      FAIR      46  46  98 N3        30.12F
GREENWOOD      PTCLDY    47  46  97 CALM      30.12F
GREENVILLE     CLEAR     49  47  93 CALM      30.12S
GRENADA          N/A    N/A N/A N/A MISG        N/A
OLIVE BRANCH   CLOUDY    52  52 100 CALM      30.14S
OXFORD         FAIR      50  46  87 CALM      30.13S
TUNICA         PTCLDY    50  46  87 CALM      30.15R
$$

MSZ003>006-009-014>017-022>024-029>033-037>039-240600-
NORTHEAST MISSISSIPPI

CITY           SKY/WX    TMP DP  RH WIND       PRES   REMARKS
COLUMBUS AFB   CLOUDY    53  50  91 NW2       30.11S
CORINTH        FAIR      52  48  87 CALM      30.10F
GOLDN TRIANGLE CLOUDY    54  46  76 CALM      30.11S
STARKVILLE     FAIR      52  50  93 CALM      30.11S
TUPELO         CLOUDY    53  47  79 NE6       30.10F
$$

MSZ040-058-240600-
CENTRAL MISSISSIPPI

CITY           SKY/WX    TMP DP  RH WIND       PRES   REMARKS
JACKSON INTL   CLEAR     48  46  93 CALM      30.11F
JACKSON HAWKNS CLEAR     52  48  86 CALM      30.12S
MERIDIAN KEY   PTCLDY    50  48  93 N5        30.11R
MERIDIAN NAS   MOCLDY    51  47  86 CALM      30.11R
RAYMOND        FOG       46  41  81 CALM      30.11F VSB 1/4
VICKSBURG      CLEAR     46  45  96 CALM      30.12F
$$

MSZ059>079-240600-
SOUTH MISSISSIPPI

CITY           SKY/WX    TMP DP  RH WIND       PRES   REMARKS
BROOKHAVEN     FAIR      50  48  93 CALM      30.12F
COLUMBIA         N/A    N/A N/A N/A MISG        N/A
HATTIESBURG    MOCLDY    55  50  83 NW5       30.10F
MCCOMB         CLEAR     55  49  80 N3        30.10F
NATCHEZ        CLEAR     50  46  87 CALM      30.11F
PINE BELT      MOCLDY    52  46  82 N5        30.11S
$$

MSZ080>082-240600-
COASTAL MISSISSIPPI

CITY           SKY/WX    TMP DP  RH WIND       PRES   REMARKS
BILOXI         MOCLDY    61  49  65 NE6       30.07S
PASCAGOULA     CLOUDY    56  50  80 CALM      30.07S
GULFPORT       MOCLDY    60  47  61 N3        30.07S
$$



USA.gov is the U.S. government's official web portal to all federal, state and local government web resources and services.